Change the Weather History Date:

Tuesday, July 23, 2013

  Actual Average (KTVC) Record (KTVC)
Temperature  
Mean Temperature 62 °F 69 °F  
Max Temperature 77 °F 80 °F 97 °F (1940)
Min Temperature 48 °F 58 °F 42 °F (1985)
Degree Days  
Heating Degree Days 2 1  
Month to date heating degree days 24  
Since 1 June heating degree days 136  
Since 1 July heating degree days 24  
Cooling Degree Days 0 5  
Month to date cooling degree days 115  
Year to date cooling degree days 216  
Since 1 June cooling degree days 196  
Growing Degree Days 12 (Base 50)    
Moisture  
Dew Point 54 °F    
Average Humidity 71    
Maximum Humidity 95    
Minimum Humidity 59    
Precipitation  
Precipitation 0.00 in 0.09 in 2.34 in (1952)
Month to date precipitation 2.21  
Year to date precipitation 16.92  
Sea Level Pressure  
Sea Level Pressure 29.79 in    
Wind  
Wind Speed 6 mph (NW)    
Max Wind Speed 15 mph    
Max Gust Speed 26 mph    
Visibility 10 miles    
Events Rain    
T = Trace of Precipitation, MM = Missing Value Source: NWS Daily Summary

Daily Weather History Graph

Daily Weather History Graph

Search for Another Location

Airport or City:

Trip Planner

Search our weather history database for the weather conditions in past years. The results will help you decide how hot, cold, wet, or windy it might be!

Date:

Astronomy

Jul. 23, 2013 Rise Set
Actual Time 6:16 AM EDT 9:17 PM EDT
Civil Twilight 5:41 AM EDT 9:52 PM EDT
Nautical Twilight 4:56 AM EDT 10:36 PM EDT
Astronomical Twilight 4:03 AM EDT 11:29 PM EDT
Moon 9:37 PM EDT (7/23) 7:29 AM EDT (7/23)
Length of Visible Light 16h 10m
Length of Day
15h 00m
Full, 99% of the Moon is Illuminated
Jul 23
Full
Jul 29
Last Quarter
Aug 6
New
Aug 14
First Quarter
Aug 20
Full

Hourly Weather History & Observations

Time (EDT) Temp. Dew Point Humidity Pressure Visibility Wind Dir Wind Speed Gust Speed Precip Events Conditions
12:13 AM 77.4 °F 61.9 °F 59% 29.68 in 10.0 mi North - - N/A   Mostly Cloudy
12:33 AM 77.0 °F 61.7 °F 59% 29.66 in 10.0 mi North - - N/A   Scattered Clouds
12:53 AM 76.6 °F 61.7 °F 60% 29.66 in 10.0 mi SSW 4.6 mph - N/A   Scattered Clouds
1:14 AM 76.3 °F 61.9 °F 61% 29.65 in 10.0 mi South 6.9 mph - N/A   Mostly Cloudy
1:33 AM 76.3 °F 62.1 °F 61% 29.65 in 10.0 mi South 5.8 mph - N/A   Mostly Cloudy
1:53 AM 76.1 °F 62.4 °F 62% 29.65 in 10.0 mi SSW 4.6 mph - N/A   Mostly Cloudy
2:13 AM 75.6 °F 62.4 °F 64% 29.67 in 10.0 mi North - - N/A   Mostly Cloudy
2:33 AM 75.2 °F 62.6 °F 65% 29.68 in 10.0 mi WSW 5.8 mph - N/A   Overcast
2:53 AM 69.6 °F 64.8 °F 84% 29.67 in 10.0 mi North - - N/A Rain Rain
3:13 AM 68.2 °F 64.0 °F 87% 29.66 in 10.0 mi South 3.5 mph - N/A Rain Light Rain
3:33 AM 68.0 °F 65.1 °F 90% 29.66 in 10.0 mi North - - N/A   Overcast
3:54 AM 67.6 °F 65.5 °F 93% 29.66 in 10.0 mi Calm Calm - N/A   Overcast
4:13 AM 67.1 °F 65.3 °F 94% 29.66 in 10.0 mi Calm Calm - N/A   Overcast
4:33 AM 67.3 °F 65.8 °F 95% 29.66 in 7.0 mi North - - N/A   Overcast
4:54 AM 68.0 °F 63.3 °F 85% 29.67 in 10.0 mi NNW 4.6 mph - N/A   Overcast
5:13 AM 67.3 °F 62.6 °F 85% 29.68 in 10.0 mi North - - N/A   Overcast
5:33 AM 67.3 °F 61.5 °F 82% 29.68 in 10.0 mi Calm Calm - N/A   Overcast
5:54 AM 66.7 °F 61.0 °F 82% 29.70 in 10.0 mi North - - N/A   Overcast
6:13 AM 66.2 °F 59.9 °F 80% 29.70 in 10.0 mi North - - N/A   Overcast
6:33 AM 65.3 °F 59.2 °F 81% 29.71 in 10.0 mi NW 3.5 mph - N/A   Overcast
6:53 AM 64.8 °F 58.6 °F 81% 29.71 in 10.0 mi Calm Calm - N/A   Scattered Clouds
7:13 AM 64.4 °F 58.3 °F 80% 29.71 in 10.0 mi NNW 3.5 mph - N/A   Clear
7:34 AM 63.9 °F 57.6 °F 80% 29.71 in 10.0 mi North 5.8 mph 17.3 mph N/A   Clear
7:53 AM 63.5 °F 57.0 °F 79% 29.71 in 10.0 mi North 9.2 mph 17.3 mph N/A   Clear
8:13 AM 63.5 °F 55.9 °F 76% 29.71 in 10.0 mi North 10.4 mph 18.4 mph N/A   Clear
8:33 AM 64.4 °F 55.6 °F 73% 29.71 in 10.0 mi North 9.2 mph 21.9 mph N/A   Clear
8:53 AM 64.6 °F 54.7 °F 70% 29.72 in 10.0 mi North 11.5 mph 18.4 mph N/A   Clear
9:14 AM 64.8 °F 53.1 °F 66% 29.73 in 10.0 mi NNW 15.0 mph 21.9 mph N/A   Scattered Clouds
9:33 AM 64.2 °F 53.2 °F 67% 29.73 in 10.0 mi North 12.7 mph - N/A   Clear
9:54 AM 65.5 °F 53.6 °F 65% 29.74 in 10.0 mi North - - N/A   Mostly Cloudy
10:13 AM 65.1 °F 54.5 °F 68% 29.75 in 10.0 mi North - - N/A   Overcast
10:33 AM 63.7 °F 52.9 °F 68% 29.75 in 10.0 mi North 11.5 mph - N/A   Overcast
10:54 AM 63.7 °F 53.2 °F 69% 29.76 in 10.0 mi NNW 9.2 mph 17.3 mph N/A   Overcast
11:13 AM 63.9 °F 52.7 °F 67% 29.77 in 10.0 mi NNW 9.2 mph 26.5 mph N/A   Overcast
11:33 AM 64.9 °F 52.3 °F 64% 29.79 in 10.0 mi North - - N/A   Overcast
11:54 AM 64.2 °F 52.7 °F 66% 29.80 in 10.0 mi NNW 13.8 mph 24.2 mph N/A   Overcast
12:13 PM 63.7 °F 52.2 °F 66% 29.81 in 10.0 mi NW 10.4 mph 25.3 mph N/A   Overcast
12:33 PM 63.5 °F 51.6 °F 65% 29.81 in 10.0 mi North - - N/A   Overcast
12:54 PM 63.1 °F 52.2 °F 67% 29.82 in 10.0 mi NW 12.7 mph 19.6 mph N/A   Overcast
1:13 PM 60.3 °F 52.2 °F 75% 29.82 in 7.0 mi NW 12.7 mph - N/A   Overcast
1:33 PM 62.8 °F 51.3 °F 66% 29.82 in 10.0 mi North - - N/A   Overcast
1:54 PM 61.0 °F 50.5 °F 68% 29.83 in 10.0 mi North - - N/A   Overcast
2:13 PM 61.2 °F 50.0 °F 67% 29.83 in 10.0 mi WNW 8.1 mph - N/A   Overcast
2:34 PM 60.6 °F 50.4 °F 69% 29.84 in 10.0 mi NW 12.7 mph - N/A   Overcast
2:53 PM 59.4 °F 50.0 °F 71% 29.85 in 10.0 mi North - - N/A   Overcast
3:13 PM 60.1 °F 49.8 °F 69% 29.85 in 10.0 mi North - - N/A   Overcast
3:34 PM 60.6 °F 49.5 °F 67% 29.85 in 10.0 mi North - - N/A   Overcast
3:53 PM 60.1 °F 49.5 °F 68% 29.85 in 10.0 mi NW 12.7 mph - N/A   Overcast
4:14 PM 60.8 °F 48.9 °F 65% 29.86 in 10.0 mi NW 12.7 mph - N/A   Overcast
4:34 PM 61.0 °F 49.3 °F 65% 29.86 in 10.0 mi NW 10.4 mph - N/A   Overcast
4:53 PM 61.2 °F 48.7 °F 64% 29.86 in 10.0 mi North - - N/A   Overcast
5:14 PM 62.1 °F 48.0 °F 60% 29.87 in 10.0 mi North - - N/A   Overcast
5:33 PM 61.9 °F 48.4 °F 61% 29.88 in 10.0 mi North - - N/A   Overcast
5:53 PM 61.7 °F 48.0 °F 61% 29.88 in 10.0 mi North - - N/A   Overcast
6:14 PM 61.0 °F 48.2 °F 63% 29.88 in 10.0 mi North - - N/A   Overcast
6:33 PM 60.8 °F 48.0 °F 63% 29.89 in 10.0 mi North - - N/A   Overcast
6:53 PM 60.3 °F 47.5 °F 63% 29.90 in 10.0 mi North - - N/A   Overcast
7:14 PM 60.3 °F 47.3 °F 62% 29.90 in 10.0 mi North 13.8 mph - N/A   Overcast
7:33 PM 60.3 °F 47.3 °F 62% 29.90 in 10.0 mi North - - N/A   Overcast
7:54 PM 60.8 °F 47.5 °F 62% 29.91 in 10.0 mi North - - N/A   Overcast
8:14 PM 60.4 °F 46.4 °F 60% 29.91 in 10.0 mi North - - N/A   Overcast
8:33 PM 60.3 °F 46.0 °F 59% 29.91 in 10.0 mi North - - N/A   Mostly Cloudy
8:54 PM 59.0 °F 45.7 °F 61% 29.92 in 10.0 mi North - - N/A   Scattered Clouds
9:14 PM 58.5 °F 45.7 °F 62% 29.92 in 10.0 mi North - - N/A   Clear
9:33 PM 57.6 °F 45.9 °F 65% 29.93 in 10.0 mi North 5.8 mph - N/A   Clear
9:54 PM 55.2 °F 46.0 °F 71% 29.93 in 10.0 mi North 4.6 mph - N/A   Clear
10:13 PM 52.5 °F 46.6 °F 80% 29.94 in 10.0 mi North 4.6 mph - N/A   Clear
10:33 PM 50.9 °F 46.6 °F 85% 29.94 in 10.0 mi North - - N/A   Clear
10:54 PM 50.2 °F 46.4 °F 87% 29.95 in 10.0 mi Calm Calm - N/A   Clear
11:13 PM 48.9 °F 46.2 °F 90% 29.95 in 10.0 mi Calm Calm - N/A   Clear
11:34 PM 48.2 °F 45.5 °F 90% 29.95 in 10.0 mi Calm Calm - N/A   Clear
11:53 PM 48.0 °F 45.1 °F 90% 29.95 in 10.0 mi North - - N/A   Clear